User: anonymous   Login
Location: Oshawa
(43.9000°N, 78.8670°W)
Time: 20:17:34
(UTC-04:00)
Language:

Iridium 54 - Orbit

View from above orbital plane
View from above orbital plane
View from above satellite
View from above satellite

Ground track
Ground track

The orbit data is extracted from the following two-line orbital elements,

1 25171U 98010C   17173.87862685 -.00000041 +00000-0 -21880-4 0  9993
2 25171 086.3950 348.0304 0002152 089.2721 270.8721 14.34212646012766
Epoch (UTC): 22 June 2017 21:05:13
Eccentricity: 0.0002152
inclination: 86.3950°
perigee height: 776 km
apogee height: 779 km
right ascension of ascending node: 348.0304°
argument of perigee: 89.2721°
revolutions per day: 14.34212646
mean anomaly at epoch: 270.8721°
orbit number at epoch: 1276

The dashed part of the orbit path shows where the satellite is in the earth's shadow,  

DLR